Location: *
(58.4167°N, 22.5000°E)
Time: 06:54:46
(UTC+00:00)

In-Cosmos 22 Rocket - Pass Details

Date: 22 September 2019
Orbit: 790 x 889 km, 81.2° (Epoch: 17 October)

Event Time Altitude Azimuth Distance (km) Brightness Sun altitude
Rises 20:37:52 0° 344° (NNW) 3,349 8.5 -27.9°
Reaches altitude 10° 20:40:20 10° 348° (NNW) 2,401 7.4 -28.0°
Enters shadow 20:45:13 59° 43° (NE) 922 4.4 -28.3°
